{"data":{"norad_id":54139,"intl_designator":"2022-138AC","name":"ONEWEB-0521","alt_names":[],"object_type":"PAYLOAD","status":"ACTIVE","operator":null,"country":"UK","launch_date":"2022-10-22","launch_site_code":"SRILR","launch_vehicle":null,"mission":null,"orbit_class":"UNKNOWN","rcs_meters":null,"size_class":null,"mass_kg":null,"dimensions":null,"purposes":["comms"],"wikipedia_slug":null,"has_3d_model":false,"image_url":null,"decayed_at":null,"tle_current":{"epoch":"2026-09-19T07:51:34.443936Z","epoch_age_seconds":127187,"freshness":"FRESH","line1":"1 54139U 22138AC  26262.32748199  .00000053  00000+0  10008-3 0  9998","line2":"2 54139  87.9114 286.2062 0002128  97.1305 263.0070 13.19725755189188","mean_motion":13.19725755,"eccentricity":0.0002128,"inclination_deg":87.9114,"raan_deg":286.2062,"arg_perigee_deg":97.1305,"mean_anomaly_deg":263.007,"bstar":0.00010008,"rev_number":18918,"period_min":109.11357867681,"perigee_km":1184.1580682677,"apogee_km":1187.377266094,"semimajor_km":7563.9046671809,"source":"CELESTRAK","updated_at":"2026-09-20T09:00:44.720592Z"}}}